User: anonymous   Login
Location: Fontevrault
(47.1823°N, 0.0493°E)
Time: 02:45:01
(UTC+00:00)
Language:

Cosmos 1340 - Orbit

View from above orbital plane
View from above orbital plane
View from above satellite
View from above satellite

Ground track
Ground track

The orbit data is extracted from the following two-line orbital elements,

1 13067U 82013A   21260.32792246  .00001021  00000-0  44118-4 0  9993
2 13067  81.1844 120.5533 0003142   1.1447 358.9791 15.21597243163811
Epoch (UTC): 17 September 2021 07:52:12
Eccentricity: 0.0003142
inclination: 81.1844°
perigee height: 499 km
apogee height: 503 km
right ascension of ascending node: 120.5533°
argument of perigee: 1.1447°
revolutions per day: 15.21597243
mean anomaly at epoch: 358.9791°
orbit number at epoch: 16381

The dashed part of the orbit path shows where the satellite is in the earth's shadow,  

DLR